User: anonymous   Login
Location: Canyon Rim
(40.8777°N, 111.8641°W)
Time: 13:36:54
(UTC+00:00)
Language:

Envisat - Orbit

View from above orbital plane
View from above orbital plane
View from above satellite
View from above satellite

Ground track
Ground track

The orbit data is extracted from the following two-line orbital elements,

1 27386U 02009A   21125.94091096  .00000038  00000-0  26158-4 0  9993
2 27386  98.1482 122.1713 0001333  86.2262  11.8929 14.38024220  4890
Epoch (UTC): 05 May 2021 22:34:54
Eccentricity: 0.0001333
inclination: 98.1482°
perigee height: 764 km
apogee height: 766 km
right ascension of ascending node: 122.1713°
argument of perigee: 86.2262°
revolutions per day: 14.38024220
mean anomaly at epoch: 11.8929°
orbit number at epoch: 489

The dashed part of the orbit path shows where the satellite is in the earth's shadow,  

DLR